Location: Eimen
(51.8766°N, 9.7806°E)
Time: 05:02:57
(UTC+00:00)

Cosmos 2221 Rocket - Pass Details

Date: 14 August 2024
Orbit: 618 x 644 km, 82.5° (Epoch: 09 September)

Event Time Altitude Azimuth Distance (km) Brightness Sun altitude
Rises 00:58:17 0° 2° (N) 2,971 8.2 -20.9°
Reaches altitude 10° 01:01:46 10° 30° (NNE) 2,055 7.4 -20.7°
Maximum altitude 01:03:56 13° 58° (ENE) 1,845 6.7 -20.5°
Drops below altitude 10° 01:06:06 10° 87° (E) 2,046 6.6 -20.4°
Sets 01:09:32 0° 115° (ESE) 2,946 7.1 -20.1°
